Duchifat 3
1 44854U 19089C   25091.33756185  .00057519  00000-0  14266-2 0  9995
2 44854  36.9463  73.3082 0004480 297.5867  62.4432 15.39329074292312
TO-108
1 44881U 19093C   25091.78733188  .00001998  00000-0  23785-3 0  9994
2 44881  97.7959 168.8744 0015276  97.3259 262.9693 14.85382066285866
FloripaSat 1
1 44885U 19093G   25091.81450466  .00008549  00000-0  73986-3 0  9994
2 44885  97.8159 179.3284 0011517  78.6222 281.6293 14.97355049286459
RS-44
1 44909U 19096E   25091.59962432  .00000007  00000-0 -25287-4 0  9994
2 44909  82.5164 273.1172 0218474  96.8746 265.7262 12.79739798245860
UPMSat 2
1 46276U 20061E   25091.45968161  .00063004  00000-0  80979-3 0  9990
2 46276  97.2510 163.9858 0001935 149.7367 210.4002 15.58892273254668
SALSAT
1 46495U 20068K   25091.85399111  .00013153  00000-0  58941-3 0  9991
2 46495  97.8564  66.7956 0013445  48.6514 311.5874 15.21299405248071
CubeSX-Sirius-HSE
1 47951U 21022V   25091.82675005  .00147139  00000-0  14980-2 0  9992
2 47951  97.4245   1.0758 0009013 151.6112 208.5640 15.64613987222999
CubeSX-HSE
1 47952U 21022W   25091.72635417  .00150170  00000-0  14959-2 0  9990
2 47952  97.4253   1.1902 0009121 147.3961 212.7864 15.65155213222994
GRBAlpha
1 47959U 21022AD  25091.82281843  .00142916  00000-0  14423-2 0  9993
2 47959  97.4238   1.4277 0008903 150.9560 209.2196 15.64851125221839
Orbicraft-Zorkiy
1 47960U 21022AE  25091.53653170  .00656542  17746-3  19043-2 0  9995
2 47960  97.4148   5.3513 0010126 143.3575 216.8394 15.92863005222723
TUBIN
1 48900U 21059X   25091.77335107  .00057077  00000-0  90566-3 0  9993
2 48900  97.6714 255.7875 0004011 145.4131 214.7383 15.53180710209337
LEDSAT
1 49069U 21073D   25091.75240380  .00063566  00000-0  10945-2 0  9994
2 49069  97.3937 170.8973 0010283 325.0233  35.0342 15.50812160200733
CUTE
1 49263U 21088D   25091.46990842  .00022331  00000-0  49507-3 0  9991
2 49263  97.4551 165.8570 0010253 132.4759 227.7356 15.43709482193751
TeikyoSat 4
1 49396U 21102B   25091.58383884  .00003960  00000-0  26649-3 0  9999
2 49396  97.4191 132.4876 0012888  17.8138 342.3539 15.07215916186157
Z-Sat
1 49399U 21102E   25091.81935838  .00006458  00000-0  36211-3 0  9991
2 49399  97.3884 135.4031 0017667 347.6437  12.4359 15.13580142186574
KOSEN 1
1 49402U 21102H   25091.60112923  .00010899  00000-0  52253-3 0  9993
2 49402  97.3788 138.1070 0014984 324.4655  35.5581 15.18979492186814
HO-113
1 50466U 21131B   25091.79917265  .00001140  00000-0  37078-3 0  9996
2 50466  98.5086 181.5031 0003733 359.3164   0.8019 14.40683605171548
IRIS-A
1 51044U 22002BN  25091.75482133  .00149270  00000-0  12185-2 0  9992
2 51044  97.3316 168.5127 0001162 130.6132 229.5232 15.70132845178996
Foresail-1
1 52766U 22057AL  25091.36949506  .00132600  00000-0  11809-2 0  9994
2 52766  97.6031 236.2319 0005418 201.4777 158.6257 15.68039045158960
SNUGLITE 2
1 52899U 22065F   25091.62283172  .00002604  00000-0  51778-3 0  9999
2 52899  98.1570 234.3197 0006871 337.0022  23.0871 14.62938098146409
IO-117
1 53106U 22080B   25051.21822557 -.00000003  00000-0  00000+0 0  9995
2 53106  70.1434 106.3440 0008542  48.0089 312.1297  6.42557744 61200
UmKA 1 (RS40S)
1 57172U 23091G   25091.84503091  .00009248  00000-0  50850-3 0  9998
2 57172  97.5657 147.6055 0014442 206.4073 153.6424 15.14213829 97072
CubeBel-2 (EU11S)
1 57175U 23091K   25091.84184446  .00014063  00000-0  70335-3 0  9991
2 57175  97.5657 148.3655 0012339 215.0285 145.0138 15.17479623 97125
VERONIKA
1 58261U 23174F   25091.76985710  .00092443  00000-0  14542-2 0  9999
2 58261  97.4180 174.7172 0006626 276.1138  83.9360 15.53264251 77940
KAFASAT
1 58317U 23174BP  25091.37546557  .05928982  24720-5  16273-2 0  9994
2 58317  97.3863 179.7237 0012903 265.3439  94.6380 16.27822073 78266
ENSO
1 58470U 23185J   25091.83983529  .00055090  00000-0  10684-2 0  9997
2 58470  97.3792 165.1467 0006554 322.9440  37.1356 15.47478347 74373
EIRSAT-1
1 58472U 23185L   25091.84426313  .00080884  00000-0  12640-2 0  9996
2 58472  97.3767 166.1644 0005382 317.6832  42.4006 15.53499812 74445
SONATE-2
1 59112U 24043Q   25091.62966491  .00025323  00000-0  80240-3 0  9993
2 59112  97.5033 221.6104 0010960   1.9866 358.1417 15.32654037 59761
MO-122
1 60209U 24125G   25091.52686774  .00025351  00000-0  79226-3 0  9998
2 60209  97.2883 304.0205 0020550  28.9085 331.3291 15.32940912 41366
GRBBeta
1 60237U 24128C   25091.37907635  .00007239  00000-0  55601-3 0  9993
2 60237  61.9930 320.7024 0045369  42.6058 317.8537 15.01780033 39800
Curium One
1 60242U 24128H   25091.85040679  .00011590  00000-0  83675-3 0  9995
2 60242  61.9833 318.2626 0045226  38.3448 322.0843 15.03680656 39894
ROBUSTA-3A
1 60243U 24128J   25091.36778534  .00011682  00000-0  85339-3 0  9991
2 60243  61.9900 320.5589 0043448  35.9041 324.4956 15.03294877 39819
CatSat
1 60246U 24125J   25091.34589123  .00013657  00000-0  47948-3 0  9991
2 60246  97.2663 303.7852 0043376 342.7320  17.2442 15.28608680 39405
HYPERVIEW-1G (RS66S)
1 61772U 24199AP  25091.78777423  .00029252  00000-0  94741-3 0  9998
2 61772  97.3640 320.9077 0016315  81.3193 278.9896 15.31847750 66410
AO-123
1 61781U 24199AY  25091.87568998  .00010457  00000-0  39462-3 0  9999
2 61781  97.3649 320.5035 0018013  82.5517 277.7768 15.27061882 66390
ZIMSAT 2
1 61783U 24199BA  25091.82713471  .00040823  00000-0  12050-2 0  9997
2 61783  97.3631 321.1504 0017046  80.0389 280.2777 15.34717418 69580
POEM 4 (BGS ARPIT)
1 62461U 24253C   25091.45671529  .01812220  11607-4  69301-3 0  9998
2 62461  55.2029 173.5003 0005575 336.9608 132.6750 16.23472053 14552
HADES-R (SO-124)
1 62690U 25009CK  25091.18728677  .00046699  00000-0  19811-2 0  9998
2 62690  97.4126 172.5421 0001803 303.8574  56.2491 15.22949028 11560
HYDRA-T
1 62692U 25009CM  25091.18188377  .00048456  00000-0  20456-2 0  9997
2 62692  97.4124 172.5486 0001736 295.4864  64.6193 15.23105351 11560
DRAGON Fram2
1 63427U 25066A   25091.75963889  .00035102  00000-0  72540-3 0  9995
2 63427  90.0018 318.4995 0004422  78.4547 281.7209 15.45682566   106
Fram2Ham
1 90000U 25090A   25091.17708220 -.00012090  00000-0 -25444-3 0    64
2 90000  90.0015 318.6050 0001128  47.8434 312.3114 15.45593922    34
